This is the latest recevied weather packets stored in our database for station/object N8HON. If no packets are shown the sender has not sent any weather packets the latest 10 day(s).
| Time | Temp. | Humidity | Pressure | Rain* | Wind** | Luminosity | Snow |
|---|---|---|---|---|---|---|---|
| 1777956090 | 12.22° C | 78% | 1010.5 hPa | 0 mm | - | 0 W/m² | - |
| 1777955786 | 12.22° C | 78% | 1010.7 hPa | 0 mm | - | 0 W/m² | - |
| 1777955483 | 12.78° C | 78% | 1010.7 hPa | 0 mm | - | 0 W/m² | - |
| 1777955178 | 12.22° C | 77% | 1010.6 hPa | 0 mm | - | 0 W/m² | - |
| 1777954877 | 12.78° C | 76% | 1010.6 hPa | 0 mm | - | 0 W/m² | - |
| 1777954573 | 12.22° C | 77% | 1010.7 hPa | 0 mm | - | 0 W/m² | - |
| 1777954270 | 12.22° C | 77% | 1010.5 hPa | 0 mm | - | 0 W/m² | - |
| 1777953967 | 12.22° C | 77% | 1010.7 hPa | 0 mm | - | 0 W/m² | - |
| 1777953664 | 12.78° C | 76% | 1010.4 hPa | 0 mm | - | 0 W/m² | - |
| 1777953361 | 12.78° C | 76% | 1010.5 hPa | 0 mm | - | 0 W/m² | - |
| 1777953057 | 12.78° C | 77% | 1010.8 hPa | 0 mm | - | 0 W/m² | - |
| 1777952754 | 12.78° C | 76% | 1010.5 hPa | 0 mm | - | 0 W/m² | - |
| 1777952450 | 12.78° C | 76% | 1010.6 hPa | 0 mm | - | 0 W/m² | - |
| 1777952148 | 12.78° C | 75% | 1010.5 hPa | 0 mm | - | 0 W/m² | - |
| 1777951846 | 12.78° C | 75% | 1010.7 hPa | 0 mm | - | 0 W/m² | - |
| 1777951544 | 12.78° C | 75% | 1010.8 hPa | 0 mm | - | 0 W/m² | - |
| 1777951239 | 12.78° C | 75% | 1010.6 hPa | 0 mm | - | 0 W/m² | - |
| 1777950937 | 12.78° C | 75% | 1010.5 hPa | 0 mm | - | 0 W/m² | - |
| 1777950633 | 12.78° C | 75% | 1010.6 hPa | 0 mm | - | 0 W/m² | - |
| 1777950330 | 12.78° C | 74% | 1010.7 hPa | 0 mm | - | 0 W/m² | - |
| 1777950026 | 13.89° C | 72% | 1010.7 hPa | 0 mm | - | 0 W/m² | - |
| 1777949722 | 13.33° C | 73% | 1010.8 hPa | 0 mm | - | 0 W/m² | - |
| 1777949422 | 13.33° C | 72% | 1010.7 hPa | 0 mm | - | 0 W/m² | - |
| 1777949118 | 13.89° C | 71% | 1011 hPa | 0 mm | - | 0 W/m² | - |
| 1777948815 | 13.89° C | 70% | 1010.7 hPa | 0 mm | - | 0 W/m² | - |
* Rain latest hour (hover to see other rain measurements)
** Current wind speed in m/s (hover to see current wind gust speed)